Regional Weather Roundup
Issued by NWS

Home | Current Version | Previous Version | Graphics & Text | Print | Product List | Glossary On
Versions: 1 2 3 4 5 6 7 8 9 10 11 12 13 14 15 16 17 18 19 20 21 22 23 24 25 26 27 28 29 30 31 32 33 34 35 36 37 38 39 40 41 42 43 44 45 46 47 48 49 50
000
ASUS43 KOAX 041102
RWRNE

WEATHER ROUNDUP FOR NEBRASKA
NATIONAL WEATHER SERVICE OMAHA NE
600 AM CDT SAT JUL 04 2015

NOTES: SATELLITE DATA IS BEING USED TO AUGMENT CLOUD COVER ABOVE
       12000 FEET.
       "FAIR" INDICATES FEW OR NO CLOUDS BELOW 12,000 FEET WITH NO
       SIGNIFICANT WEATHER AND/OR OBSTRUCTIONS TO VISIBILITY.

  * THESE STATIONS DO NOT REPORT WEATHER SUCH AS RAIN...SNOW OR FOG.

NEZ001>004-019>022-054>056-041200-
NEBRASKA PANHANDLE

CITY           SKY/WX    TMP DP  RH WIND       PRES   REMARKS
SCOTTSBLUFF    PTCLDY    66  60  81 E10       29.95F
ALLIANCE       MOCLDY    64  59  83 SE10      29.96F
CHADRON        PTCLDY    69  59  70 S13       29.89F
KIMBALL          N/A    N/A N/A N/A MISG        N/A
SIDNEY         MOCLDY    64  60  87 S9        30.00F
$$

NEZ057>060-069>072-079>082-041200-
SOUTHWEST NEBRASKA

CITY           SKY/WX    TMP DP  RH WIND       PRES   REMARKS
NORTH PLATTE   PTCLDY    63  59  87 E6        29.99F
IMPERIAL       CLEAR     63  58  83 SE8       29.98F
LEXINGTON      CLEAR     62  60  91 SE5       30.00S
MCCOOK         CLEAR     63  59  87 E5        29.99S
$$

NEZ005>010-023>029-035>040-094-041200-
NORTH CENTRAL NEBRASKA

CITY           SKY/WX    TMP DP  RH WIND       PRES   REMARKS
VALENTINE      PTCLDY    64  60  87 SW9       29.94F
AINSWORTH      CLEAR     62  61  96 S6        29.97S
BROKEN BOW     CLEAR     61  58  90 CALM      30.00S FOG
ORD            PTCLDY    56  55  97 CALM      29.99S FOG
$$

NEZ041-046>049-061>064-073>077-083>087-041200-
SOUTH CENTRAL NEBRASKA

CITY           SKY/WX    TMP DP  RH WIND       PRES   REMARKS
GRAND ISLAND   CLEAR     62  60  93 CALM      30.00F FOG
AURORA         CLEAR     60  60 100 CALM      30.00S FOG
HASTINGS       CLEAR     62  60  93 S5        30.00S
KEARNEY *      CLEAR     61  57  88 S5        30.01S
$$

NEZ011>018-030>034-042>045-041200-
NORTHEAST NEBRASKA

CITY           SKY/WX    TMP DP  RH WIND       PRES   REMARKS
NORFOLK        CLEAR     57  56  96 CALM      29.99S FOG
ALBION         CLEAR     60  58  93 CALM      30.00R FOG
BLAIR          CLEAR     58  53  85 S3        30.00R
COLUMBUS *       N/A     55  50  82 CALM      29.98S VSB<1/4
FREMONT        CLEAR     60  57  89 CALM      30.00R
TEKAMAH        CLEAR     54  52  93 CALM      29.99S
$$

NEZ050>053-065>068-078-088>093-041200-
SOUTHEAST NEBRASKA

CITY           SKY/WX    TMP DP  RH WIND       PRES   REMARKS
LINCOLN        CLEAR     59  57  93 CALM      30.00R FOG
OMAHA EPPLEY   CLEAR     59  57  93 CALM      29.99S FOG
BEATRICE       CLEAR     59  57  93 CALM      30.00R
FALLS CITY     CLEAR     58  57  97 SE3       29.99R
NEBRASKA CITY  CLEAR     61  55  81 SE3       30.00R
PLATTSMOUTH    CLEAR     59  55  87 CALM      30.00S
$$

NEZ044-045-051>053-067-041200-
OMAHA AREA

CITY           SKY/WX    TMP DP  RH WIND       PRES   REMARKS
OMAHA EPPLEY   CLEAR     59  57  93 CALM      29.99S FOG
BLAIR          CLEAR     58  53  85 S3        30.00R
FREMONT        CLEAR     60  57  89 CALM      30.00R
MILLARD        FOG       57  56  96 CALM      30.00R VSB 1/2
OFFUTT AFB     CLEAR     51  51  99 E2        29.99R FOG
PLATTSMOUTH    CLEAR     59  55  87 CALM      30.00S
WAHOO          FAIR      59  58  94 CALM      30.00R FOG
$$



USA.gov is the U.S. government's official web portal to all federal, state and local government web resources and services.